Location: Highland Meadows Observing Site
(48.4428°N, 114.5461°W)
Time: 21:01:59
(UTC-07:00)

Gurwin Techsat 1B - Visible Passes

Search period start: 26 February 2015 00:00
Search period end: 08 March 2015 00:00
Orbit: 813 x 813 km, 98.5° (Epoch: 26 February)

Date Brightness Start Highest point End Pass type
(mag) Time Alt. Az. Time Alt. Az. Time Alt. Az.
26 Feb 11.2 02:53:36 10° NNE 02:54:45 16° NNE 02:54:45 16° NNE visible
26 Feb 10.3 04:33:51 10° N 04:35:58 21° NNW 04:35:58 21° NNW visible
27 Feb 11.4 02:31:13 10° NE 02:31:53 13° NE 02:31:53 13° NE visible
27 Feb 10.3 04:10:53 10° N 04:13:07 24° N 04:13:07 24° N visible
28 Feb 10.3 03:48:01 10° N 03:50:15 26° N 03:50:15 26° N visible
28 Feb 10.6 05:29:58 10° NNW 05:31:28 13° NW 05:31:28 13° NW visible
01 Mar 10.5 03:25:17 10° NNE 03:27:23 25° NNE 03:27:23 25° NNE visible
01 Mar 10.4 05:06:22 10° NNW 05:08:37 17° NW 05:08:37 17° NW visible
02 Mar 10.8 03:02:40 10° NNE 03:04:32 22° NNE 03:04:32 22° NNE visible
02 Mar 10.2 04:43:09 10° N 04:45:45 22° NNW 04:45:45 22° NNW visible
03 Mar 11.1 02:40:12 10° NNE 02:41:40 18° NE 02:41:40 18° NE visible
03 Mar 10.0 04:20:07 10° N 04:22:53 27° NNW 04:22:53 27° NNW visible
04 Mar 11.4 02:17:58 10° NE 02:18:48 13° NE 02:18:48 13° NE visible
04 Mar 10.0 03:57:13 10° N 04:00:02 31° N 04:00:02 31° N visible
04 Mar 10.6 05:39:47 10° NNW 05:41:15 11° NW 05:41:15 11° NW visible
05 Mar 10.1 03:34:26 10° NNE 03:37:10 31° NNE 03:37:10 31° NNE visible
05 Mar 10.4 05:15:49 10° NNW 05:18:23 16° NW 05:18:23 16° NW visible
06 Mar 10.4 03:11:46 10° NNE 03:14:18 28° NNE 03:14:18 28° NNE visible
06 Mar 10.1 04:52:29 10° N 04:55:31 22° NW 04:55:31 22° NW visible
07 Mar 10.7 02:49:14 10° NNE 02:51:26 23° NE 02:51:26 23° NE visible
07 Mar 9.8 04:29:23 10° N 04:32:40 29° NNW 04:32:40 29° NNW visible
